User: anonymous   Login
Location: Hancock Field Station
(44.9202°N, 120.4259°W)
Time: 07:53:31
(UTC-08:00)
Language:

Cosmos 1707 - Orbit

View from above orbital plane
View from above orbital plane
View from above satellite
View from above satellite

Ground track
Ground track

The orbit data is extracted from the following two-line orbital elements,

1 16326U 85113A   17050.85475951  .00000401  00000-0  20856-4 0  9993
2 16326  82.5136 323.5938 0010782 356.3801   3.7350 15.13114695699606
Epoch (UTC): 19 February 2017 20:30:51
Eccentricity: 0.0010782
inclination: 82.5136°
perigee height: 519 km
apogee height: 534 km
right ascension of ascending node: 323.5938°
argument of perigee: 356.3801°
revolutions per day: 15.13114695
mean anomaly at epoch: 3.7350°
orbit number at epoch: 69960

The dashed part of the orbit path shows where the satellite is in the earth's shadow,  

DLR